Time,TemperatureF,DewpointF,PressureIn,WindDirection,WindDirectionDegrees,WindSpeedMPH,WindSpeedGustMPH,Humidity,HourlyPrecipIn,Conditions,Clouds,dailyrainin,SoftwareType,DateUTC
2013-05-19 00:01:00,77.5,65.7,29.77,WSW,257,3.0,4.0,67,0.00,,,0.00,WeatherCatV1.13B119,2013-05-19 05:01:00,
2013-05-19 00:06:00,77.3,65.5,29.78,ESE,108,3.0,3.0,67,0.00,,,0.00,WeatherCatV1.13B119,2013-05-19 05:06:00,
2013-05-19 00:11:00,77.1,65.3,29.78,SE,139,2.0,4.0,67,0.00,,,0.00,WeatherCatV1.13B119,2013-05-19 05:11:00,
2013-05-19 00:16:00,77.0,65.6,29.78,SSE,158,3.0,5.0,68,0.00,,,0.00,WeatherCatV1.13B119,2013-05-19 05:16:00,
2013-05-19 00:21:00,76.8,65.4,29.78,SSE,160,1.0,6.0,68,0.00,,,0.00,WeatherCatV1.13B119,2013-05-19 05:21:00,
2013-05-19 00:26:00,76.7,65.3,29.78,SW,217,2.0,4.0,68,0.00,,,0.00,WeatherCatV1.13B119,2013-05-19 05:26:00,
2013-05-19 00:31:00,76.6,65.2,29.78,SE,124,3.0,8.0,68,0.00,,,0.00,WeatherCatV1.13B119,2013-05-19 05:31:00,
2013-05-19 00:36:00,76.6,65.2,29.78,ESE,123,3.0,5.0,68,0.00,,,0.00,WeatherCatV1.13B119,2013-05-19 05:36:00,
2013-05-19 00:39:00,76.5,65.1,29.78,SE,130,4.0,8.0,68,0.00,,,0.00,WeatherCatV1.13B119,2013-05-19 05:39:00,
2013-05-19 00:44:00,76.5,65.6,29.78,SSW,199,4.0,4.0,69,0.00,,,0.00,WeatherCatV1.13B119,2013-05-19 05:44:00,
2013-05-19 00:49:00,76.4,65.5,29.78,SE,131,5.0,7.0,69,0.00,,,0.00,WeatherCatV1.13B119,2013-05-19 05:49:00,
2013-05-19 00:54:00,76.3,65.4,29.78,SE,139,2.0,6.0,69,0.00,,,0.00,WeatherCatV1.13B119,2013-05-19 05:54:00,
2013-05-19 00:59:00,76.2,65.3,29.78,SSE,147,2.0,3.0,69,0.00,,,0.00,WeatherCatV1.13B119,2013-05-19 05:59:00,
2013-05-19 01:04:00,76.1,65.6,29.78,ESE,115,1.0,4.0,70,0.00,,,0.00,WeatherCatV1.13B119,2013-05-19 06:04:00,
2013-05-19 01:09:00,75.9,65.4,29.78,SSE,161,1.0,3.0,70,0.00,,,0.00,WeatherCatV1.13B119,2013-05-19 06:09:00,
2013-05-19 01:14:00,75.8,65.3,29.78,SSE,155,3.0,4.0,70,0.00,,,0.00,WeatherCatV1.13B119,2013-05-19 06:14:00,
2013-05-19 01:19:00,75.6,65.5,29.78,ESE,105,3.0,7.0,71,0.00,,,0.00,WeatherCatV1.13B119,2013-05-19 06:19:00,
2013-05-19 01:24:00,75.6,65.5,29.77,SE,139,1.0,4.0,71,0.00,,,0.00,WeatherCatV1.13B119,2013-05-19 06:24:00,
2013-05-19 01:29:00,75.4,65.7,29.77,SSW,200,1.0,5.0,72,0.00,,,0.00,WeatherCatV1.13B119,2013-05-19 06:29:00,
2013-05-19 01:34:00,75.3,65.6,29.78,East,101,3.0,4.0,72,0.00,,,0.00,WeatherCatV1.13B119,2013-05-19 06:34:00,
2013-05-19 01:39:00,75.2,65.9,29.78,SSE,167,1.0,6.0,73,0.00,,,0.00,WeatherCatV1.13B119,2013-05-19 06:39:00,
2013-05-19 01:44:00,75.1,65.8,29.78,SE,135,2.0,5.0,73,0.00,,,0.00,WeatherCatV1.13B119,2013-05-19 06:44:00,
2013-05-19 01:49:00,75.0,66.1,29.78,East,95,3.0,3.0,74,0.00,,,0.00,WeatherCatV1.13B119,2013-05-19 06:49:00,
2013-05-19 01:53:00,74.9,66.0,29.77,SSE,158,2.0,3.0,74,0.00,,,0.00,WeatherCatV1.13B119,2013-05-19 06:53:00,
2013-05-19 01:58:00,74.8,65.9,29.77,SSE,162,2.0,4.0,74,0.00,,,0.00,WeatherCatV1.13B119,2013-05-19 06:58:00,
2013-05-19 02:03:00,74.6,66.1,29.77,South,181,3.0,3.0,75,0.00,,,0.00,WeatherCatV1.13B119,2013-05-19 07:03:00,
2013-05-19 02:08:00,74.3,66.2,29.77,SE,139,2.0,5.0,76,0.00,,,0.00,WeatherCatV1.13B119,2013-05-19 07:08:00,
2013-05-19 02:13:00,74.1,66.4,29.78,West,266,3.0,5.0,77,0.00,,,0.00,WeatherCatV1.13B119,2013-05-19 07:13:00,
2013-05-19 02:18:00,74.0,66.3,29.78,SE,128,3.0,4.0,77,0.00,,,0.00,WeatherCatV1.13B119,2013-05-19 07:18:00,
2013-05-19 02:23:00,73.9,66.6,29.78,SE,131,1.0,2.0,78,0.00,,,0.00,WeatherCatV1.13B119,2013-05-19 07:23:00,
2013-05-19 02:28:00,73.8,66.9,29.77,SSE,154,2.0,2.0,79,0.00,,,0.00,WeatherCatV1.13B119,2013-05-19 07:28:00,
2013-05-19 02:33:00,73.6,66.7,29.77,SSE,158,2.0,5.0,79,0.00,,,0.00,WeatherCatV1.13B119,2013-05-19 07:33:00,
2013-05-19 02:38:00,73.6,67.0,29.77,SE,125,2.0,4.0,80,0.00,,,0.00,WeatherCatV1.13B119,2013-05-19 07:38:00,
2013-05-19 02:43:00,73.5,67.3,29.77,SSE,156,3.0,3.0,81,0.00,,,0.00,WeatherCatV1.13B119,2013-05-19 07:43:00,
2013-05-19 02:48:00,73.4,67.6,29.77,ESE,112,1.0,4.0,82,0.00,,,0.00,WeatherCatV1.13B119,2013-05-19 07:48:00,
2013-05-19 02:53:00,73.3,67.8,29.77,SSE,166,2.0,5.0,83,0.00,,,0.00,WeatherCatV1.13B119,2013-05-19 07:53:00,
2013-05-19 02:58:00,73.3,68.2,29.76,South,183,4.0,5.0,84,0.00,,,0.00,WeatherCatV1.13B119,2013-05-19 07:58:00,
2013-05-19 03:03:00,73.2,68.1,29.76,SE,143,4.0,7.0,84,0.00,,,0.00,WeatherCatV1.13B119,2013-05-19 08:03:00,
2013-05-19 03:08:00,73.2,68.1,29.76,SW,231,2.0,5.0,84,0.00,,,0.00,WeatherCatV1.13B119,2013-05-19 08:08:00,
2013-05-19 03:13:00,73.2,68.1,29.76,SE,142,3.0,6.0,84,0.00,,,0.00,WeatherCatV1.13B119,2013-05-19 08:13:00,
2013-05-19 03:18:00,73.2,68.1,29.76,South,184,2.0,6.0,84,0.00,,,0.00,WeatherCatV1.13B119,2013-05-19 08:18:00,
2013-05-19 03:23:00,73.2,68.1,29.76,SE,144,5.0,9.0,84,0.00,,,0.00,WeatherCatV1.13B119,2013-05-19 08:23:00,
2013-05-19 03:28:00,73.2,68.1,29.76,SSE,161,2.0,3.0,84,0.00,,,0.00,WeatherCatV1.13B119,2013-05-19 08:28:00,
2013-05-19 03:33:00,73.1,68.0,29.76,SE,142,3.0,5.0,84,0.00,,,0.00,WeatherCatV1.13B119,2013-05-19 08:33:00,
2013-05-19 03:38:00,73.0,67.9,29.76,SSE,153,2.0,7.0,84,0.00,,,0.00,WeatherCatV1.13B119,2013-05-19 08:38:00,
2013-05-19 03:43:00,73.0,67.9,29.76,SE,136,4.0,5.0,84,0.00,,,0.00,WeatherCatV1.13B119,2013-05-19 08:43:00,
2013-05-19 03:48:00,73.0,67.9,29.76,ESE,110,1.0,8.0,84,0.00,,,0.00,WeatherCatV1.13B119,2013-05-19 08:48:00,
2013-05-19 03:53:00,73.0,67.9,29.76,SW,215,1.0,5.0,84,0.00,,,0.00,WeatherCatV1.13B119,2013-05-19 08:53:00,
2013-05-19 03:58:00,72.9,67.8,29.76,SE,127,3.0,5.0,84,0.00,,,0.00,WeatherCatV1.13B119,2013-05-19 08:58:00,
2013-05-19 04:03:00,72.9,67.8,29.76,SSE,164,2.0,5.0,84,0.00,,,0.00,WeatherCatV1.13B119,2013-05-19 09:03:00,
2013-05-19 04:08:00,72.9,67.8,29.76,South,191,3.0,4.0,84,0.00,,,0.00,WeatherCatV1.13B119,2013-05-19 09:08:00,
2013-05-19 04:13:00,72.9,67.8,29.76,South,172,1.0,7.0,84,0.00,,,0.00,WeatherCatV1.13B119,2013-05-19 09:13:00,
2013-05-19 04:18:00,72.8,67.7,29.76,ESE,123,1.0,5.0,84,0.00,,,0.00,WeatherCatV1.13B119,2013-05-19 09:18:00,
2013-05-19 04:23:00,72.8,67.7,29.76,South,179,2.0,3.0,84,0.00,,,0.00,WeatherCatV1.13B119,2013-05-19 09:23:00,
2013-05-19 04:28:00,72.8,68.0,29.76,SSE,163,2.0,4.0,85,0.00,,,0.00,WeatherCatV1.13B119,2013-05-19 09:28:00,
2013-05-19 04:33:00,72.7,67.9,29.76,South,171,1.0,5.0,85,0.00,,,0.00,WeatherCatV1.13B119,2013-05-19 09:33:00,
2013-05-19 04:38:00,72.6,67.8,29.76,SE,127,3.0,3.0,85,0.00,,,0.00,WeatherCatV1.13B119,2013-05-19 09:38:00,
2013-05-19 04:43:00,72.6,67.8,29.76,ESE,115,1.0,1.0,85,0.00,,,0.00,WeatherCatV1.13B119,2013-05-19 09:43:00,
2013-05-19 04:48:00,72.6,67.8,29.77,SSE,158,0.0,1.0,85,0.00,,,0.00,WeatherCatV1.13B119,2013-05-19 09:48:00,
2013-05-19 04:53:00,72.6,67.8,29.77,SSE,149,2.0,4.0,85,0.00,,,0.00,WeatherCatV1.13B119,2013-05-19 09:53:00,
2013-05-19 04:58:00,72.7,67.9,29.77,SSW,210,2.0,3.0,85,0.00,,,0.00,WeatherCatV1.13B119,2013-05-19 09:58:00,
2013-05-19 05:03:00,72.7,67.9,29.77,SSW,200,1.0,3.0,85,0.00,,,0.00,WeatherCatV1.13B119,2013-05-19 10:03:00,
2013-05-19 05:08:00,72.9,67.8,29.77,ESE,113,1.0,5.0,84,0.00,,,0.00,WeatherCatV1.13B119,2013-05-19 10:08:00,
2013-05-19 05:13:00,72.9,68.1,29.77,SE,139,2.0,4.0,85,0.00,,,0.00,WeatherCatV1.13B119,2013-05-19 10:13:00,
2013-05-19 05:18:00,73.0,67.9,29.77,South,184,2.0,3.0,84,0.00,,,0.00,WeatherCatV1.13B119,2013-05-19 10:18:00,
2013-05-19 05:23:00,73.0,67.9,29.76,SSE,153,2.0,3.0,84,0.00,,,0.00,WeatherCatV1.13B119,2013-05-19 10:23:00,
2013-05-19 05:28:00,73.0,67.9,29.76,SSE,147,2.0,5.0,84,0.00,,,0.00,WeatherCatV1.13B119,2013-05-19 10:28:00,
2013-05-19 05:33:00,73.0,67.9,29.76,SE,124,3.0,4.0,84,0.00,,,0.00,WeatherCatV1.13B119,2013-05-19 10:33:00,
2013-05-19 05:38:00,73.0,67.9,29.76,SSE,167,3.0,3.0,84,0.00,,,0.00,WeatherCatV1.13B119,2013-05-19 10:38:00,
2013-05-19 05:43:00,73.1,68.0,29.76,ESE,105,4.0,5.0,84,0.00,,,0.00,WeatherCatV1.13B119,2013-05-19 10:43:00,
2013-05-19 05:48:00,73.1,68.0,29.75,SE,128,4.0,6.0,84,0.00,,,0.00,WeatherCatV1.13B119,2013-05-19 10:48:00,
2013-05-19 05:53:00,73.1,68.0,29.76,SE,146,4.0,5.0,84,0.00,,,0.00,WeatherCatV1.13B119,2013-05-19 10:53:00,
2013-05-19 05:58:00,73.2,68.1,29.76,SE,145,0.0,5.0,84,0.00,,,0.00,WeatherCatV1.13B119,2013-05-19 10:58:00,
2013-05-19 06:03:00,73.2,68.1,29.76,SSE,155,6.0,6.0,84,0.00,,,0.00,WeatherCatV1.13B119,2013-05-19 11:03:00,
2013-05-19 06:08:00,73.2,67.7,29.76,South,179,2.0,6.0,83,0.00,,,0.00,WeatherCatV1.13B119,2013-05-19 11:08:00,
2013-05-19 06:13:00,73.3,67.8,29.75,SSW,200,3.0,4.0,83,0.00,,,0.00,WeatherCatV1.13B119,2013-05-19 11:13:00,
2013-05-19 06:18:00,73.3,67.8,29.75,SE,138,3.0,6.0,83,0.00,,,0.00,WeatherCatV1.13B119,2013-05-19 11:18:00,
2013-05-19 06:23:00,73.4,67.9,29.75,WSW,237,4.0,6.0,83,0.00,,,0.00,WeatherCatV1.13B119,2013-05-19 11:23:00,
2013-05-19 06:28:00,73.5,68.0,29.76,South,172,5.0,7.0,83,0.00,,,0.00,WeatherCatV1.13B119,2013-05-19 11:28:00,
2013-05-19 06:33:00,73.5,68.0,29.76,SSE,160,3.0,4.0,83,0.00,,,0.00,WeatherCatV1.13B119,2013-05-19 11:33:00,
2013-05-19 06:38:00,73.5,68.0,29.76,SSE,162,1.0,4.0,83,0.00,,,0.00,WeatherCatV1.13B119,2013-05-19 11:38:00,
2013-05-19 06:43:00,73.5,68.0,29.76,SSE,168,4.0,7.0,83,0.00,,,0.00,WeatherCatV1.13B119,2013-05-19 11:43:00,
2013-05-19 06:48:00,73.5,68.0,29.76,South,181,3.0,5.0,83,0.00,,,0.00,WeatherCatV1.13B119,2013-05-19 11:48:00,
2013-05-19 06:53:00,73.5,68.0,29.76,ESE,122,3.0,4.0,83,0.00,,,0.00,WeatherCatV1.13B119,2013-05-19 11:53:00,
2013-05-19 06:58:00,73.6,68.1,29.76,SE,133,2.0,5.0,83,0.00,,,0.00,WeatherCatV1.13B119,2013-05-19 11:58:00,
2013-05-19 07:03:00,73.7,68.2,29.76,SSE,161,2.0,6.0,83,0.00,,,0.00,WeatherCatV1.13B119,2013-05-19 12:03:00,
2013-05-19 07:08:00,73.8,68.3,29.76,SSE,153,3.0,7.0,83,0.00,,,0.00,WeatherCatV1.13B119,2013-05-19 12:08:00,
2013-05-19 07:13:00,73.9,68.4,29.77,ENE,65,3.0,3.0,83,0.00,,,0.00,WeatherCatV1.13B119,2013-05-19 12:13:00,
2013-05-19 07:18:00,73.9,68.0,29.77,SSE,162,4.0,5.0,82,0.00,,,0.00,WeatherCatV1.13B119,2013-05-19 12:18:00,
2013-05-19 07:23:00,74.0,68.1,29.77,SSE,149,3.0,5.0,82,0.00,,,0.00,WeatherCatV1.13B119,2013-05-19 12:23:00,
2013-05-19 07:28:00,74.1,68.2,29.76,SW,228,4.0,6.0,82,0.00,,,0.00,WeatherCatV1.13B119,2013-05-19 12:28:00,
2013-05-19 07:33:00,74.2,68.3,29.77,SE,144,3.0,5.0,82,0.00,,,0.00,WeatherCatV1.13B119,2013-05-19 12:33:00,
2013-05-19 07:38:00,74.3,68.4,29.77,SSE,156,4.0,5.0,82,0.00,,,0.00,WeatherCatV1.13B119,2013-05-19 12:38:00,
2013-05-19 07:43:00,74.4,68.5,29.77,SSE,150,2.0,5.0,82,0.00,,,0.00,WeatherCatV1.13B119,2013-05-19 12:43:00,
2013-05-19 07:48:00,74.5,68.3,29.77,SSE,155,2.0,5.0,81,0.00,,,0.00,WeatherCatV1.13B119,2013-05-19 12:48:00,
2013-05-19 07:53:00,74.6,68.4,29.77,SW,214,2.0,3.0,81,0.00,,,0.00,WeatherCatV1.13B119,2013-05-19 12:53:00,
2013-05-19 07:58:00,74.8,68.6,29.77,SE,143,3.0,6.0,81,0.00,,,0.00,WeatherCatV1.13B119,2013-05-19 12:58:00,
2013-05-19 08:03:00,74.9,68.7,29.78,SSE,155,3.0,8.0,81,0.00,,,0.00,WeatherCatV1.13B119,2013-05-19 13:03:00,
2013-05-19 08:08:00,75.1,68.9,29.78,SSE,156,2.0,4.0,81,0.00,,,0.00,WeatherCatV1.13B119,2013-05-19 13:08:00,
2013-05-19 08:13:00,75.3,69.1,29.78,SSE,155,3.0,4.0,81,0.00,,,0.00,WeatherCatV1.13B119,2013-05-19 13:13:00,
2013-05-19 08:18:00,75.5,69.2,29.78,SE,143,2.0,4.0,81,0.00,,,0.00,WeatherCatV1.13B119,2013-05-19 13:18:00,
2013-05-19 08:23:00,75.7,69.1,29.78,SE,139,5.0,6.0,80,0.00,,,0.00,WeatherCatV1.13B119,2013-05-19 13:23:00,
2013-05-19 08:28:00,75.8,69.2,29.77,SSW,212,3.0,4.0,80,0.00,,,0.00,WeatherCatV1.13B119,2013-05-19 13:28:00,
2013-05-19 08:33:00,76.0,69.4,29.77,SE,146,2.0,8.0,80,0.00,,,0.00,WeatherCatV1.13B119,2013-05-19 13:33:00,
2013-05-19 08:38:00,76.2,69.6,29.77,ESE,122,3.0,4.0,80,0.00,,,0.00,WeatherCatV1.13B119,2013-05-19 13:38:00,
2013-05-19 08:43:00,76.3,69.3,29.77,ESE,113,5.0,6.0,79,0.00,,,0.00,WeatherCatV1.13B119,2013-05-19 13:43:00,
2013-05-19 08:48:00,76.6,69.6,29.78,ESE,120,3.0,6.0,79,0.00,,,0.00,WeatherCatV1.13B119,2013-05-19 13:48:00,
2013-05-19 08:53:00,76.7,69.3,29.77,SE,129,2.0,4.0,78,0.00,,,0.00,WeatherCatV1.13B119,2013-05-19 13:53:00,
2013-05-19 08:58:00,77.0,69.6,29.77,SE,134,5.0,9.0,78,0.00,,,0.00,WeatherCatV1.13B119,2013-05-19 13:58:00,
2013-05-19 09:03:00,77.2,69.8,29.78,SSE,153,4.0,6.0,78,0.00,,,0.00,WeatherCatV1.13B119,2013-05-19 14:03:00,
2013-05-19 09:08:00,77.3,69.9,29.77,SSE,167,1.0,6.0,78,0.00,,,0.00,WeatherCatV1.13B119,2013-05-19 14:08:00,
2013-05-19 09:13:00,77.7,69.5,29.77,SSE,154,5.0,7.0,76,0.00,,,0.00,WeatherCatV1.13B119,2013-05-19 14:13:00,
2013-05-19 09:18:00,77.9,69.3,29.78,ESE,123,6.0,7.0,75,0.00,,,0.00,WeatherCatV1.13B119,2013-05-19 14:18:00,
2013-05-19 09:23:00,78.1,69.5,29.77,SE,146,3.0,9.0,75,0.00,,,0.00,WeatherCatV1.13B119,2013-05-19 14:23:00,
2013-05-19 09:28:00,78.2,69.6,29.78,South,172,5.0,7.0,75,0.00,,,0.00,WeatherCatV1.13B119,2013-05-19 14:28:00,
2013-05-19 09:33:00,78.5,69.9,29.78,SSE,158,3.0,4.0,75,0.00,,,0.00,WeatherCatV1.13B119,2013-05-19 14:33:00,
2013-05-19 09:38:00,78.9,69.9,29.78,SE,146,3.0,3.0,74,0.00,,,0.00,WeatherCatV1.13B119,2013-05-19 14:38:00,
2013-05-19 09:43:00,79.4,70.0,29.78,SE,141,2.0,6.0,73,0.00,,,0.00,WeatherCatV1.13B119,2013-05-19 14:43:00,
2013-05-19 09:48:00,80.1,70.2,29.78,SE,143,2.0,4.0,72,0.00,,,0.00,WeatherCatV1.13B119,2013-05-19 14:48:00,
2013-05-19 09:53:00,80.4,70.1,29.78,South,191,2.0,8.0,71,0.00,,,0.00,WeatherCatV1.13B119,2013-05-19 14:53:00,
2013-05-19 09:58:00,80.7,70.4,29.78,NNW,340,1.0,3.0,71,0.00,,,0.00,WeatherCatV1.13B119,2013-05-19 14:58:00,
2013-05-19 10:03:00,82.9,72.5,29.78,NW,305,4.0,6.0,71,1.02,,,0.04,WeatherCatV1.13B119,2013-05-19 15:03:00,
2013-05-19 10:08:00,82.8,70.7,29.78,SSW,194,3.0,11.0,67,0.11,,,0.04,WeatherCatV1.13B119,2013-05-19 15:08:00,
2013-05-19 10:13:00,82.9,70.8,29.77,SSW,203,5.0,6.0,67,0.06,,,0.04,WeatherCatV1.13B119,2013-05-19 15:13:00,
2013-05-19 10:18:00,83.3,70.7,29.77,WSW,240,9.0,9.0,66,0.04,,,0.04,WeatherCatV1.13B119,2013-05-19 15:18:00,
2013-05-19 10:23:00,83.5,70.5,29.77,SSW,209,9.0,11.0,65,0.00,,,0.04,WeatherCatV1.13B119,2013-05-19 15:23:00,
2013-05-19 10:28:00,83.7,71.1,29.77,SSW,200,3.0,5.0,66,0.00,,,0.04,WeatherCatV1.13B119,2013-05-19 15:28:00,
2013-05-19 10:33:00,83.6,70.6,29.77,SE,140,3.0,5.0,65,0.00,,,0.04,WeatherCatV1.13B119,2013-05-19 15:33:00,
2013-05-19 10:38:00,83.5,70.0,29.77,SSE,160,4.0,10.0,64,0.00,,,0.04,WeatherCatV1.13B119,2013-05-19 15:38:00,
2013-05-19 10:43:00,83.7,70.7,29.77,SE,136,3.0,4.0,65,0.00,,,0.04,WeatherCatV1.13B119,2013-05-19 15:43:00,
2013-05-19 10:48:00,84.3,70.3,29.77,South,179,7.0,13.0,63,0.00,,,0.04,WeatherCatV1.13B119,2013-05-19 15:48:00,
2013-05-19 10:53:00,84.7,71.1,29.77,ESE,119,5.0,5.0,64,0.00,,,0.04,WeatherCatV1.13B119,2013-05-19 15:53:00,
2013-05-19 10:58:00,84.8,70.3,29.76,South,172,7.0,12.0,62,0.00,,,0.04,WeatherCatV1.13B119,2013-05-19 15:58:00,
2013-05-19 11:03:00,85.2,70.7,29.76,SW,217,4.0,9.0,62,0.00,,,0.04,WeatherCatV1.13B119,2013-05-19 16:03:00,
2013-05-19 11:08:00,85.6,70.6,29.76,ESE,118,3.0,6.0,61,0.00,,,0.04,WeatherCatV1.13B119,2013-05-19 16:08:00,
2013-05-19 11:13:00,85.5,70.5,29.77,South,189,3.0,6.0,61,0.00,,,0.04,WeatherCatV1.13B119,2013-05-19 16:13:00,
2013-05-19 11:18:00,85.5,70.5,29.76,SSW,193,6.0,12.0,61,0.00,,,0.04,WeatherCatV1.13B119,2013-05-19 16:18:00,
2013-05-19 11:23:00,86.1,71.5,29.76,SE,124,2.0,6.0,62,0.00,,,0.04,WeatherCatV1.13B119,2013-05-19 16:23:00,
2013-05-19 11:28:00,86.0,70.0,29.76,SSW,213,5.0,10.0,59,0.00,,,0.04,WeatherCatV1.13B119,2013-05-19 16:28:00,
2013-05-19 11:33:00,85.9,70.9,29.77,South,170,5.0,6.0,61,0.00,,,0.04,WeatherCatV1.13B119,2013-05-19 16:33:00,
2013-05-19 11:38:00,85.3,70.3,29.77,SE,135,4.0,10.0,61,0.00,,,0.04,WeatherCatV1.13B119,2013-05-19 16:38:00,
2013-05-19 11:40:00,85.3,70.3,29.77,SSE,167,2.0,5.0,61,0.00,,,0.04,WeatherCatV1.13B119,2013-05-19 16:40:00,
2013-05-19 11:45:00,86.1,71.0,29.77,SSE,150,1.0,4.0,61,0.00,,,0.04,WeatherCatV1.13B119,2013-05-19 16:45:00,
2013-05-19 11:50:00,87.2,71.1,29.77,SE,127,3.0,6.0,59,0.00,,,0.04,WeatherCatV1.13B119,2013-05-19 16:50:00,
2013-05-19 11:55:00,87.9,71.2,29.77,SE,131,2.0,5.0,58,0.00,,,0.04,WeatherCatV1.13B119,2013-05-19 16:55:00,
2013-05-19 12:00:00,88.2,70.5,29.77,SE,141,2.0,10.0,56,0.00,,,0.04,WeatherCatV1.13B119,2013-05-19 17:00:00,
2013-05-19 12:05:00,88.5,71.3,29.76,SSE,150,4.0,7.0,57,0.00,,,0.04,WeatherCatV1.13B119,2013-05-19 17:05:00,
2013-05-19 12:10:00,88.6,71.9,29.76,ESE,121,4.0,10.0,58,0.00,,,0.04,WeatherCatV1.13B119,2013-05-19 17:10:00,
2013-05-19 12:15:00,88.3,71.6,29.76,SSE,151,3.0,5.0,58,0.00,,,0.04,WeatherCatV1.13B119,2013-05-19 17:15:00,
2013-05-19 12:20:00,88.3,71.1,29.76,SE,141,2.0,9.0,57,0.00,,,0.04,WeatherCatV1.13B119,2013-05-19 17:20:00,
2013-05-19 12:25:00,88.6,70.9,29.76,SE,139,3.0,9.0,56,0.00,,,0.04,WeatherCatV1.13B119,2013-05-19 17:25:00,
2013-05-19 12:30:00,88.7,70.9,29.75,SSW,206,1.0,11.0,56,0.00,,,0.04,WeatherCatV1.13B119,2013-05-19 17:30:00,
2013-05-19 12:35:00,88.5,70.2,29.75,SW,221,4.0,7.0,55,0.00,,,0.04,WeatherCatV1.13B119,2013-05-19 17:35:00,
2013-05-19 12:40:00,88.3,71.6,29.75,ESE,103,2.0,6.0,58,0.00,,,0.04,WeatherCatV1.13B119,2013-05-19 17:40:00,
2013-05-19 12:45:00,88.8,71.0,29.75,SSE,157,1.0,8.0,56,0.00,,,0.04,WeatherCatV1.13B119,2013-05-19 17:45:00,
2013-05-19 12:50:00,89.1,70.8,29.75,ENE,74,4.0,6.0,55,0.00,,,0.04,WeatherCatV1.13B119,2013-05-19 17:50:00,
2013-05-19 12:55:00,89.2,70.9,29.75,South,172,4.0,7.0,55,0.00,,,0.04,WeatherCatV1.13B119,2013-05-19 17:55:00,
2013-05-19 13:00:00,89.3,70.4,29.75,SW,224,3.0,6.0,54,0.00,,,0.04,WeatherCatV1.13B119,2013-05-19 18:00:00,
2013-05-19 13:05:00,89.3,71.0,29.74,SE,124,2.0,4.0,55,0.00,,,0.04,WeatherCatV1.13B119,2013-05-19 18:05:00,
2013-05-19 13:10:00,89.8,69.8,29.74,WSW,243,0.0,9.0,52,0.00,,,0.04,WeatherCatV1.13B119,2013-05-19 18:10:00,
2013-05-19 13:15:00,89.6,70.7,29.74,SW,214,6.0,7.0,54,0.00,,,0.04,WeatherCatV1.13B119,2013-05-19 18:15:00,
2013-05-19 13:20:00,89.9,71.0,29.74,SSE,147,5.0,7.0,54,0.00,,,0.04,WeatherCatV1.13B119,2013-05-19 18:20:00,
2013-05-19 13:25:00,90.4,69.8,29.73,SSE,153,3.0,7.0,51,0.00,,,0.04,WeatherCatV1.13B119,2013-05-19 18:25:00,
2013-05-19 13:30:00,90.5,71.0,29.73,SE,146,3.0,12.0,53,0.00,,,0.04,WeatherCatV1.13B119,2013-05-19 18:30:00,
2013-05-19 13:35:00,90.7,70.6,29.73,SSW,209,5.0,7.0,52,0.00,,,0.04,WeatherCatV1.13B119,2013-05-19 18:35:00,
2013-05-19 13:40:00,91.5,71.3,29.72,SE,139,3.0,4.0,52,0.00,,,0.04,WeatherCatV1.13B119,2013-05-19 18:40:00,
2013-05-19 13:45:00,92.1,70.1,29.73,South,191,5.0,13.0,49,0.00,,,0.04,WeatherCatV1.13B119,2013-05-19 18:45:00,
2013-05-19 13:50:00,92.0,71.2,29.73,SSW,195,4.0,8.0,51,0.00,,,0.04,WeatherCatV1.13B119,2013-05-19 18:50:00,
2013-05-19 13:55:00,92.0,70.6,29.72,SW,217,2.0,6.0,50,0.00,,,0.04,WeatherCatV1.13B119,2013-05-19 18:55:00,
2013-05-19 14:00:00,92.1,70.1,29.72,South,186,5.0,11.0,49,0.00,,,0.04,WeatherCatV1.13B119,2013-05-19 19:00:00,
2013-05-19 14:05:00,91.8,70.5,29.72,SSE,152,2.0,9.0,50,0.00,,,0.04,WeatherCatV1.13B119,2013-05-19 19:05:00,
2013-05-19 14:10:00,91.3,70.0,29.72,ESE,106,5.0,7.0,50,0.00,,,0.04,WeatherCatV1.13B119,2013-05-19 19:10:00,
2013-05-19 14:15:00,91.1,70.4,29.71,ESE,122,3.0,7.0,51,0.00,,,0.04,WeatherCatV1.13B119,2013-05-19 19:15:00,
2013-05-19 14:20:00,91.2,70.5,29.71,SE,144,4.0,11.0,51,0.00,,,0.04,WeatherCatV1.13B119,2013-05-19 19:20:00,
2013-05-19 14:25:00,91.2,69.9,29.71,ESE,117,4.0,8.0,50,0.00,,,0.04,WeatherCatV1.13B119,2013-05-19 19:25:00,
2013-05-19 14:30:00,91.3,70.6,29.71,SSW,196,4.0,11.0,51,0.00,,,0.04,WeatherCatV1.13B119,2013-05-19 19:30:00,
2013-05-19 14:35:00,91.4,70.1,29.71,SSE,149,3.0,6.0,50,0.00,,,0.04,WeatherCatV1.13B119,2013-05-19 19:35:00,
2013-05-19 14:40:00,91.3,69.4,29.70,East,101,5.0,9.0,49,0.00,,,0.04,WeatherCatV1.13B119,2013-05-19 19:40:00,
2013-05-19 14:45:00,91.4,69.5,29.70,South,188,3.0,11.0,49,0.00,,,0.04,WeatherCatV1.13B119,2013-05-19 19:45:00,
2013-05-19 14:50:00,92.3,71.5,29.70,SW,223,4.0,7.0,51,0.00,,,0.04,WeatherCatV1.13B119,2013-05-19 19:50:00,
2013-05-19 14:55:00,92.1,69.5,29.70,East,101,3.0,11.0,48,0.00,,,0.04,WeatherCatV1.13B119,2013-05-19 19:55:00,
2013-05-19 15:00:00,91.9,69.4,29.69,SSW,195,9.0,9.0,48,0.00,,,0.04,WeatherCatV1.13B119,2013-05-19 20:00:00,
2013-05-19 15:05:00,91.3,69.4,29.69,SSE,150,2.0,7.0,49,0.00,,,0.04,WeatherCatV1.13B119,2013-05-19 20:05:00,
2013-05-19 15:10:00,91.6,70.3,29.69,ESE,117,2.0,9.0,50,0.00,,,0.04,WeatherCatV1.13B119,2013-05-19 20:10:00,
2013-05-19 15:15:00,91.6,69.7,29.69,SE,124,2.0,13.0,49,0.00,,,0.04,WeatherCatV1.13B119,2013-05-19 20:15:00,
2013-05-19 15:20:00,92.1,70.1,29.68,SW,220,6.0,6.0,49,0.00,,,0.04,WeatherCatV1.13B119,2013-05-19 20:20:00,
2013-05-19 15:25:00,92.0,70.6,29.68,ESE,122,5.0,8.0,50,0.00,,,0.04,WeatherCatV1.13B119,2013-05-19 20:25:00,
2013-05-19 15:30:00,92.0,70.1,29.68,ESE,116,2.0,10.0,49,0.00,,,0.04,WeatherCatV1.13B119,2013-05-19 20:30:00,
2013-05-19 15:35:00,92.5,70.5,29.68,SE,136,2.0,6.0,49,0.00,,,0.04,WeatherCatV1.13B119,2013-05-19 20:35:00,
2013-05-19 15:40:00,92.8,69.6,29.68,SSE,150,4.0,8.0,47,0.00,,,0.04,WeatherCatV1.13B119,2013-05-19 20:40:00,
2013-05-19 15:45:00,92.7,70.1,29.68,SW,226,6.0,10.0,48,0.00,,,0.04,WeatherCatV1.13B119,2013-05-19 20:45:00,
2013-05-19 15:50:00,92.2,69.6,29.68,SSE,153,6.0,6.0,48,0.00,,,0.04,WeatherCatV1.13B119,2013-05-19 20:50:00,
2013-05-19 15:55:00,92.0,70.1,29.67,SE,136,2.0,11.0,49,0.00,,,0.04,WeatherCatV1.13B119,2013-05-19 20:55:00,
2013-05-19 16:00:00,92.2,69.6,29.67,South,172,2.0,6.0,48,0.00,,,0.04,WeatherCatV1.13B119,2013-05-19 21:00:00,
2013-05-19 16:05:00,93.1,71.1,29.67,SE,125,2.0,6.0,49,0.00,,,0.04,WeatherCatV1.13B119,2013-05-19 21:05:00,
2013-05-19 16:10:00,93.4,70.7,29.67,SE,129,4.0,10.0,48,0.00,,,0.04,WeatherCatV1.13B119,2013-05-19 21:10:00,
2013-05-19 16:15:00,92.9,70.3,29.67,SSW,193,8.0,8.0,48,0.00,,,0.04,WeatherCatV1.13B119,2013-05-19 21:15:00,
2013-05-19 16:20:00,92.1,70.1,29.67,South,177,2.0,5.0,49,0.00,,,0.04,WeatherCatV1.13B119,2013-05-19 21:20:00,
2013-05-19 16:25:00,92.1,69.5,29.67,SSE,160,3.0,9.0,48,0.00,,,0.04,WeatherCatV1.13B119,2013-05-19 21:25:00,
2013-05-19 16:30:00,92.3,70.3,29.67,South,186,7.0,7.0,49,0.00,,,0.04,WeatherCatV1.13B119,2013-05-19 21:30:00,
2013-05-19 16:35:00,92.7,70.1,29.67,SSE,159,0.0,5.0,48,0.00,,,0.04,WeatherCatV1.13B119,2013-05-19 21:35:00,
2013-05-19 16:40:00,92.3,69.1,29.67,SSE,162,3.0,9.0,47,0.00,,,0.04,WeatherCatV1.13B119,2013-05-19 21:40:00,
2013-05-19 16:45:00,92.2,69.0,29.67,SSE,159,3.0,6.0,47,0.00,,,0.04,WeatherCatV1.13B119,2013-05-19 21:45:00,
2013-05-19 16:50:00,91.8,68.7,29.67,South,176,4.0,7.0,47,0.00,,,0.04,WeatherCatV1.13B119,2013-05-19 21:50:00,
2013-05-19 16:55:00,91.9,69.4,29.67,SW,221,8.0,10.0,48,0.00,,,0.04,WeatherCatV1.13B119,2013-05-19 21:55:00,
2013-05-19 17:00:00,91.5,70.2,29.66,SE,143,4.0,5.0,50,0.00,,,0.04,WeatherCatV1.13B119,2013-05-19 22:00:00,
2013-05-19 17:05:00,92.1,69.5,29.66,ESE,108,3.0,6.0,48,0.00,,,0.04,WeatherCatV1.13B119,2013-05-19 22:05:00,
2013-05-19 17:10:00,91.6,69.7,29.66,SE,138,3.0,10.0,49,0.00,,,0.04,WeatherCatV1.13B119,2013-05-19 22:10:00,
2013-05-19 17:15:00,91.5,69.6,29.66,South,176,2.0,6.0,49,0.00,,,0.04,WeatherCatV1.13B119,2013-05-19 22:15:00,
2013-05-19 17:20:00,91.5,69.6,29.66,SSE,155,3.0,11.0,49,0.00,,,0.04,WeatherCatV1.13B119,2013-05-19 22:20:00,
2013-05-19 17:25:00,91.1,69.8,29.66,SE,139,2.0,7.0,50,0.00,,,0.04,WeatherCatV1.13B119,2013-05-19 22:25:00,
2013-05-19 17:30:00,90.9,69.1,29.65,ESE,107,5.0,8.0,49,0.00,,,0.04,WeatherCatV1.13B119,2013-05-19 22:30:00,
2013-05-19 17:35:00,90.7,69.5,29.66,SSW,193,1.0,6.0,50,0.00,,,0.04,WeatherCatV1.13B119,2013-05-19 22:35:00,
2013-05-19 17:40:00,90.6,69.4,29.66,SE,127,3.0,6.0,50,0.00,,,0.04,WeatherCatV1.13B119,2013-05-19 22:40:00,
2013-05-19 17:45:00,90.4,69.2,29.65,South,178,2.0,8.0,50,0.00,,,0.04,WeatherCatV1.13B119,2013-05-19 22:45:00,
2013-05-19 17:50:00,90.3,69.1,29.66,ESE,119,3.0,4.0,50,0.00,,,0.04,WeatherCatV1.13B119,2013-05-19 22:50:00,
2013-05-19 17:55:00,90.4,69.2,29.65,SE,126,5.0,6.0,50,0.00,,,0.04,WeatherCatV1.13B119,2013-05-19 22:55:00,
2013-05-19 18:00:00,90.4,69.8,29.65,SSE,161,2.0,4.0,51,0.00,,,0.04,WeatherCatV1.13B119,2013-05-19 23:00:00,
2013-05-19 18:05:00,90.9,68.4,29.65,SSE,150,4.0,14.0,48,0.00,,,0.04,WeatherCatV1.13B119,2013-05-19 23:05:00,
2013-05-19 18:10:00,90.6,68.8,29.65,ESE,104,3.0,5.0,49,0.00,,,0.04,WeatherCatV1.13B119,2013-05-19 23:10:00,
2013-05-19 18:15:00,90.3,69.1,29.65,ESE,107,2.0,4.0,50,0.00,,,0.04,WeatherCatV1.13B119,2013-05-19 23:15:00,
2013-05-19 18:20:00,90.2,69.0,29.65,SE,130,2.0,5.0,50,0.00,,,0.04,WeatherCatV1.13B119,2013-05-19 23:20:00,
2013-05-19 18:25:00,90.0,68.8,29.65,SSE,163,3.0,5.0,50,0.00,,,0.04,WeatherCatV1.13B119,2013-05-19 23:25:00,
2013-05-19 18:30:00,89.9,69.3,29.65,South,174,2.0,6.0,51,0.00,,,0.04,WeatherCatV1.13B119,2013-05-19 23:30:00,
2013-05-19 18:35:00,89.8,69.2,29.65,SE,132,3.0,4.0,51,0.00,,,0.04,WeatherCatV1.13B119,2013-05-19 23:35:00,
2013-05-19 18:40:00,89.9,69.3,29.65,SSW,204,3.0,6.0,51,0.00,,,0.04,WeatherCatV1.13B119,2013-05-19 23:40:00,
2013-05-19 18:45:00,90.4,69.8,29.65,SE,140,4.0,5.0,51,0.00,,,0.04,WeatherCatV1.13B119,2013-05-19 23:45:00,
2013-05-19 18:50:00,90.4,69.8,29.64,SE,134,3.0,7.0,51,0.00,,,0.04,WeatherCatV1.13B119,2013-05-19 23:50:00,
2013-05-19 18:55:00,90.1,68.9,29.65,East,94,4.0,5.0,50,0.00,,,0.04,WeatherCatV1.13B119,2013-05-19 23:55:00,
2013-05-19 19:00:00,89.8,69.2,29.65,SSW,210,1.0,6.0,51,0.00,,,0.04,WeatherCatV1.13B119,2013-05-20 00:00:00,
2013-05-19 19:05:00,89.5,68.9,29.65,SE,132,5.0,9.0,51,0.00,,,0.04,WeatherCatV1.13B119,2013-05-20 00:05:00,
2013-05-19 19:10:00,89.1,69.1,29.65,SE,128,5.0,6.0,52,0.00,,,0.04,WeatherCatV1.13B119,2013-05-20 00:10:00,
2013-05-19 19:15:00,88.7,68.8,29.65,SE,131,2.0,6.0,52,0.00,,,0.04,WeatherCatV1.13B119,2013-05-20 00:15:00,
2013-05-19 19:20:00,88.3,69.0,29.65,SW,224,3.0,6.0,53,0.00,,,0.04,WeatherCatV1.13B119,2013-05-20 00:20:00,
2013-05-19 19:25:00,88.0,68.7,29.66,SSE,155,4.0,7.0,53,0.00,,,0.04,WeatherCatV1.13B119,2013-05-20 00:25:00,
2013-05-19 19:30:00,87.9,68.6,29.66,ESE,110,4.0,5.0,53,0.00,,,0.04,WeatherCatV1.13B119,2013-05-20 00:30:00,
2013-05-19 19:35:00,87.6,68.9,29.66,SSW,195,2.0,8.0,54,0.00,,,0.04,WeatherCatV1.13B119,2013-05-20 00:35:00,
2013-05-19 19:40:00,87.4,68.7,29.66,SW,236,4.0,7.0,54,0.00,,,0.04,WeatherCatV1.13B119,2013-05-20 00:40:00,
2013-05-19 19:45:00,87.2,69.0,29.67,SSE,153,3.0,5.0,55,0.00,,,0.04,WeatherCatV1.13B119,2013-05-20 00:45:00,
2013-05-19 19:50:00,86.8,68.7,29.67,ESE,117,2.0,7.0,55,0.00,,,0.04,WeatherCatV1.13B119,2013-05-20 00:50:00,
2013-05-19 19:55:00,86.5,68.9,29.67,SE,134,2.0,3.0,56,0.00,,,0.04,WeatherCatV1.13B119,2013-05-20 00:55:00,
2013-05-19 20:00:00,86.2,68.6,29.68,SE,129,0.0,4.0,56,0.00,,,0.04,WeatherCatV1.13B119,2013-05-20 01:00:00,
2013-05-19 20:05:00,86.0,68.4,29.68,ESE,120,1.0,2.0,56,0.00,,,0.04,WeatherCatV1.13B119,2013-05-20 01:05:00,
2013-05-19 20:10:00,85.8,68.3,29.68,SE,129,2.0,5.0,56,0.00,,,0.04,WeatherCatV1.13B119,2013-05-20 01:10:00,
2013-05-19 20:15:00,85.6,68.1,29.68,SE,136,3.0,7.0,56,0.00,,,0.04,WeatherCatV1.13B119,2013-05-20 01:15:00,
2013-05-19 20:20:00,85.4,67.9,29.69,SE,132,4.0,4.0,56,0.00,,,0.04,WeatherCatV1.13B119,2013-05-20 01:20:00,
2013-05-19 20:25:00,85.2,67.7,29.69,SSE,164,5.0,7.0,56,0.00,,,0.04,WeatherCatV1.13B119,2013-05-20 01:25:00,
2013-05-19 20:30:00,85.0,67.5,29.69,East,94,6.0,8.0,56,0.00,,,0.04,WeatherCatV1.13B119,2013-05-20 01:30:00,
2013-05-19 20:35:00,84.8,67.8,29.69,ESE,113,6.0,6.0,57,0.00,,,0.04,WeatherCatV1.13B119,2013-05-20 01:35:00,
2013-05-19 20:40:00,84.5,67.6,29.69,ESE,122,3.0,5.0,57,0.00,,,0.04,WeatherCatV1.13B119,2013-05-20 01:40:00,
2013-05-19 20:45:00,84.3,67.4,29.69,ESE,112,6.0,7.0,57,0.00,,,0.04,WeatherCatV1.13B119,2013-05-20 01:45:00,
2013-05-19 20:50:00,84.2,67.3,29.69,SE,134,4.0,9.0,57,0.00,,,0.04,WeatherCatV1.13B119,2013-05-20 01:50:00,
2013-05-19 20:55:00,83.9,67.0,29.69,ESE,119,6.0,7.0,57,0.00,,,0.04,WeatherCatV1.13B119,2013-05-20 01:55:00,
2013-05-19 21:00:00,83.8,66.9,29.70,SE,127,3.0,11.0,57,0.00,,,0.04,WeatherCatV1.13B119,2013-05-20 02:00:00,
2013-05-19 21:05:00,83.5,67.1,29.70,ESE,111,5.0,6.0,58,0.00,,,0.04,WeatherCatV1.13B119,2013-05-20 02:05:00,
2013-05-19 21:10:00,83.3,66.9,29.70,ESE,115,2.0,6.0,58,0.00,,,0.04,WeatherCatV1.13B119,2013-05-20 02:10:00,
2013-05-19 21:15:00,83.1,67.3,29.70,SE,127,5.0,9.0,59,0.00,,,0.04,WeatherCatV1.13B119,2013-05-20 02:15:00,
2013-05-19 21:20:00,82.9,67.1,29.70,SE,143,3.0,6.0,59,0.00,,,0.04,WeatherCatV1.13B119,2013-05-20 02:20:00,
2013-05-19 21:25:00,82.6,67.3,29.71,ESE,123,2.0,4.0,60,0.00,,,0.04,WeatherCatV1.13B119,2013-05-20 02:25:00,
2013-05-19 21:30:00,82.4,67.1,29.70,SSE,161,3.0,9.0,60,0.00,,,0.04,WeatherCatV1.13B119,2013-05-20 02:30:00,
2013-05-19 21:35:00,82.1,67.3,29.71,SSE,158,4.0,6.0,61,0.00,,,0.04,WeatherCatV1.13B119,2013-05-20 02:35:00,
2013-05-19 21:40:00,81.9,67.6,29.71,SSE,158,4.0,9.0,62,0.00,,,0.04,WeatherCatV1.13B119,2013-05-20 02:40:00,
2013-05-19 21:45:00,81.7,67.4,29.71,SSE,158,3.0,7.0,62,0.00,,,0.04,WeatherCatV1.13B119,2013-05-20 02:45:00,
2013-05-19 21:50:00,81.6,67.3,29.71,SSE,147,4.0,10.0,62,0.00,,,0.04,WeatherCatV1.13B119,2013-05-20 02:50:00,
2013-05-19 21:55:00,81.4,67.6,29.71,East,92,4.0,9.0,63,0.00,,,0.04,WeatherCatV1.13B119,2013-05-20 02:55:00,
2013-05-19 22:00:00,81.1,67.7,29.72,ENE,70,9.0,9.0,64,0.00,,,0.04,WeatherCatV1.13B119,2013-05-20 03:00:00,
2013-05-19 22:05:00,80.7,68.3,29.72,SE,126,3.0,6.0,66,0.00,,,0.04,WeatherCatV1.13B119,2013-05-20 03:05:00,
2013-05-19 22:10:00,80.3,68.3,29.72,NE,49,4.0,5.0,67,0.00,,,0.04,WeatherCatV1.13B119,2013-05-20 03:10:00,
2013-05-19 22:15:00,80.0,68.5,29.73,SE,143,6.0,7.0,68,0.00,,,0.04,WeatherCatV1.13B119,2013-05-20 03:15:00,
2013-05-19 22:20:00,79.8,68.3,29.73,NE,53,7.0,13.0,68,0.00,,,0.04,WeatherCatV1.13B119,2013-05-20 03:20:00,
2013-05-19 22:25:00,79.6,68.5,29.73,ESE,111,4.0,6.0,69,0.00,,,0.04,WeatherCatV1.13B119,2013-05-20 03:25:00,
2013-05-19 22:30:00,79.3,68.6,29.74,SSE,164,2.0,8.0,70,0.00,,,0.04,WeatherCatV1.13B119,2013-05-20 03:30:00,
2013-05-19 22:35:00,79.1,68.5,29.74,SE,132,3.0,6.0,70,0.00,,,0.04,WeatherCatV1.13B119,2013-05-20 03:35:00,
2013-05-19 22:40:00,78.9,68.7,29.74,SE,124,1.0,7.0,71,0.00,,,0.04,WeatherCatV1.13B119,2013-05-20 03:40:00,
2013-05-19 22:45:00,78.7,68.9,29.74,SSW,203,5.0,9.0,72,0.00,,,0.04,WeatherCatV1.13B119,2013-05-20 03:45:00,
2013-05-19 22:50:00,78.6,69.2,29.75,SE,134,4.0,9.0,73,0.00,,,0.04,WeatherCatV1.13B119,2013-05-20 03:50:00,
2013-05-19 22:55:00,78.4,69.4,29.75,East,91,6.0,6.0,74,0.00,,,0.04,WeatherCatV1.13B119,2013-05-20 03:55:00,
2013-05-19 23:00:00,78.1,69.5,29.75,SE,140,2.0,3.0,75,0.00,,,0.04,WeatherCatV1.13B119,2013-05-20 04:00:00,
2013-05-19 23:01:00,78.1,69.5,29.75,South,178,2.0,3.0,75,0.00,,,0.04,WeatherCatV1.13B119,2013-05-20 04:01:00,
2013-05-19 23:06:00,77.9,69.7,29.75,SSW,210,5.0,5.0,76,0.00,,,0.04,WeatherCatV1.13B119,2013-05-20 04:06:00,
2013-05-19 23:11:00,77.7,69.5,29.75,SE,143,4.0,5.0,76,0.00,,,0.04,WeatherCatV1.13B119,2013-05-20 04:11:00,
2013-05-19 23:16:00,77.6,69.8,29.75,SE,143,3.0,8.0,77,0.00,,,0.04,WeatherCatV1.13B119,2013-05-20 04:16:00,
2013-05-19 23:21:00,77.4,69.6,29.75,SW,216,5.0,7.0,77,0.00,,,0.04,WeatherCatV1.13B119,2013-05-20 04:21:00,
2013-05-19 23:26:00,77.1,69.7,29.75,SE,131,3.0,5.0,78,0.00,,,0.04,WeatherCatV1.13B119,2013-05-20 04:26:00,
2013-05-19 23:31:00,76.9,69.5,29.75,ESE,115,4.0,6.0,78,0.00,,,0.04,WeatherCatV1.13B119,2013-05-20 04:31:00,
2013-05-19 23:36:00,76.7,69.7,29.75,ESE,108,1.0,2.0,79,0.00,,,0.04,WeatherCatV1.13B119,2013-05-20 04:36:00,
2013-05-19 23:41:00,76.5,69.5,29.75,ESE,116,1.0,4.0,79,0.00,,,0.04,WeatherCatV1.13B119,2013-05-20 04:41:00,
2013-05-19 23:46:00,76.2,69.6,29.75,SSE,150,1.0,2.0,80,0.00,,,0.04,WeatherCatV1.13B119,2013-05-20 04:46:00,
2013-05-19 23:51:00,76.1,69.5,29.76,SSE,158,2.0,3.0,80,0.00,,,0.04,WeatherCatV1.13B119,2013-05-20 04:51:00,
2013-05-19 23:56:00,76.0,69.7,29.75,SE,130,1.0,3.0,81,0.00,,,0.04,WeatherCatV1.13B119,2013-05-20 04:56:00,